,,Stat5,,Stat1,,Stat2,,Stat3,,Stat4,,Wind1,,Wind1,
time,status,PA1M_AVG,status,PR1M_SUM,status,RH1M_AVG,status,SR1M_AVG,status,TA1M_AVG,status,W1dAve1m,status,W1sAve1m,
2000-05-01, 00:00:01,VALID,919.26,VALID,0,VALID,97.527,VALID,-0.0339617,VALID,18.8769,VALID,138,VALID,0,
2000-05-01, 00:01:00,VALID,919.257,VALID,0,VALID,97.5105,VALID,-0.0509425,VALID,18.8536,VALID,138,VALID,0,
2000-05-01, 00:02:00,VALID,919.233,VALID,0,VALID,97.5283,VALID,-0.0509425,VALID,18.8275,VALID,133,VALID,0,
2000-05-01, 00:03:00,VALID,919.219,VALID,0,VALID,97.6491,VALID,-0.0169808,VALID,18.8545,VALID,103,VALID,0,
2000-05-01, 00:04:00,VALID,919.204,VALID,0,VALID,97.6389,VALID,-0.0339617,VALID,18.8411,VALID,100,VALID,0,
2000-05-01, 00:05:00,VALID,919.188,VALID,0,VALID,97.5194,VALID,-0.0339617,VALID,18.8088,VALID,100,VALID,0,
2000-05-01, 00:06:00,VALID,919.155,VALID,0,VALID,97.5155,VALID,-0.0339617,VALID,18.7798,VALID,100,VALID,0,
2000-05-01, 00:07:00,VALID,919.138,VALID,0,VALID,97.4621,VALID,0,VALID,18.7634,VALID,100,VALID,0,
2000-05-01, 00:08:00,VALID,919.121,VALID,0,VALID,97.4202,VALID,-0.0509425,VALID,18.7542,VALID,100,VALID,0,
2000-05-01, 00:09:00,VALID,919.108,VALID,0,VALID,97.452,VALID,-0.0339617,VALID,18.735,VALID,101,VALID,0.145693,
2000-05-01, 00:10:00,VALID,919.1,VALID,0,VALID,97.5219,VALID,-0.0679233,VALID,18.7149,VALID,114,VALID,0.423478,
2000-05-01, 00:11:00,VALID,919.093,VALID,0,VALID,97.5995,VALID,-0.0509425,VALID,18.7286,VALID,117,VALID,0.296258,
2000-05-01, 00:12:00,VALID,919.093,VALID,0,VALID,97.6287,VALID,-0.0339617,VALID,18.7318,VALID,123,VALID,0.0688734,
2000-05-01, 00:13:00,VALID,919.087,VALID,0,VALID,97.5842,VALID,-0.0849042,VALID,18.7184,VALID,127,VALID,0.0282452,
2000-05-01, 00:14:00,VALID,919.082,VALID,0,VALID,97.5969,VALID,-0.0169808,VALID,18.7251,VALID,134,VALID,0,
2000-05-01, 00:15:00,VALID,919.071,VALID,0,VALID,97.6338,VALID,-0.0169808,VALID,18.7412,VALID,134,VALID,0,
2000-05-01, 00:16:00,VALID,919.064,VALID,0,VALID,97.5855,VALID,-0.0679233,VALID,18.7274,VALID,130,VALID,0,
2000-05-01, 00:17:00,VALID,919.043,VALID,0,VALID,97.5308,VALID,-0.0679233,VALID,18.7445,VALID,129,VALID,0.654605,
2000-05-01, 00:18:00,VALID,919.036,VALID,0,VALID,97.5359,VALID,-0.0169808,VALID,18.7574,VALID,124,VALID,0.511924,
2000-05-01, 00:19:00,VALID,919.03,VALID,0,VALID,97.5155,VALID,-0.0169808,VALID,18.7537,VALID,124,VALID,0.263363,
2000-05-01, 00:20:00,VALID,919.024,VALID,0,VALID,97.4927,VALID,0,VALID,18.7668,VALID,124,VALID,0.0651727,
2000-05-01, 00:21:00,VALID,919.015,VALID,0,VALID,97.41,VALID,-0.0169808,VALID,18.7666,VALID,124,VALID,0,
2000-05-01, 00:22:00,VALID,918.995,VALID,0,VALID,97.396,VALID,-0.0339617,VALID,18.7668,VALID,124,VALID,0,
2000-05-01, 00:23:00,VALID,918.979,VALID,0,VALID,97.2956,VALID,-0.0679233,VALID,18.7673,VALID,134,VALID,0,
2000-05-01, 00:24:00,VALID,918.951,VALID,0,VALID,97.2587,VALID,-0.0339617,VALID,18.7472,VALID,136,VALID,0,
2000-05-01, 00:25:00,VALID,918.926,VALID,0,VALID,97.2409,VALID,0.0169808,VALID,18.7534,VALID,136,VALID,0,
2000-05-01, 00:26:00,VALID,918.905,VALID,0,VALID,97.1264,VALID,-0.0169808,VALID,18.7341,VALID,143,VALID,0.335732,
2000-05-01, 00:27:00,VALID,918.898,VALID,0,VALID,97.0171,VALID,-0.0339617,VALID,18.7382,VALID,160,VALID,0.290913,
2000-05-01, 00:28:00,VALID,918.874,VALID,0,VALID,96.909,VALID,-0.0169808,VALID,18.7378,VALID,184,VALID,0.238487,
2000-05-01, 00:29:00,VALID,918.861,VALID,0,VALID,96.8696,VALID,-0.0339617,VALID,18.738,VALID,218,VALID,0.416667,
2000-05-01, 00:30:00,VALID,918.855,VALID,0,VALID,96.881,VALID,-0.0509425,VALID,18.7154,VALID,217,VALID,0.600781,
2000-05-01, 00:31:00,VALID,918.849,VALID,0,VALID,96.8912,VALID,-0.0509425,VALID,18.7159,VALID,216,VALID,0.715461,
2000-05-01, 00:32:00,VALID,918.837,VALID,0,VALID,97.0107,VALID,-0.0169808,VALID,18.7025,VALID,217,VALID,0.813734,
2000-05-01, 00:33:00,VALID,918.84,VALID,0,VALID,97.2536,VALID,0,VALID,18.7055,VALID,217,VALID,0.693668,
2000-05-01, 00:34:00,VALID,918.829,VALID,0,VALID,97.4125,VALID,-0.0339617,VALID,18.7087,VALID,221,VALID,0.716283,
2000-05-01, 00:35:00,VALID,918.833,VALID,0,VALID,97.4405,VALID,-0.0169808,VALID,18.6891,VALID,222,VALID,0.469984,
2000-05-01, 00:36:00,VALID,918.831,VALID,0,VALID,97.5664,VALID,-0.0339617,VALID,18.69,VALID,220,VALID,0.331003,
2000-05-01, 00:37:00,VALID,918.834,VALID,0,VALID,97.6834,VALID,0,VALID,18.6725,VALID,221,VALID,0.0969551,
2000-05-01, 00:38:00,VALID,918.826,VALID,0,VALID,97.7012,VALID,0.0679233,VALID,18.6658,VALID,210,VALID,0,
2000-05-01, 00:39:00,VALID,918.83,VALID,0,VALID,97.5626,VALID,0.0509425,VALID,18.6272,VALID,196,VALID,0,
2000-05-01, 00:40:00,VALID,918.815,VALID,0,VALID,97.5918,VALID,0.0339617,VALID,18.5885,VALID,214,VALID,0,
2000-05-01, 00:41:00,VALID,918.814,VALID,0,VALID,97.6885,VALID,0.0849042,VALID,18.5684,VALID,222,VALID,0,
2000-05-01, 00:42:00,VALID,918.806,VALID,0,VALID,97.7495,VALID,0.0509425,VALID,18.556,VALID,226,VALID,0,
2000-05-01, 00:43:00,VALID,918.804,VALID,0,VALID,97.8131,VALID,0.0509425,VALID,18.5363,VALID,230,VALID,0,
2000-05-01, 00:44:00,VALID,918.798,VALID,0,VALID,97.9034,VALID,0.101885,VALID,18.5306,VALID,230,VALID,0,
2000-05-01, 00:45:00,VALID,918.782,VALID,0,VALID,98.0013,VALID,0.101885,VALID,18.5038,VALID,224,VALID,0,
2000-05-01, 00:46:00,VALID,918.769,VALID,0,VALID,98.1043,VALID,0.0849042,VALID,18.5006,VALID,233,VALID,0,
2000-05-01, 00:47:00,VALID,918.742,VALID,0,VALID,98.234,VALID,0.0849042,VALID,18.5073,VALID,255,VALID,0,
2000-05-01, 00:48:00,VALID,918.724,VALID,0,VALID,98.3205,VALID,0.0849042,VALID,18.5075,VALID,307,VALID,0,
2000-05-01, 00:49:00,VALID,918.711,VALID,0,VALID,98.3802,VALID,0.0679233,VALID,18.5011,VALID,257,VALID,0,
2000-05-01, 00:50:00,VALID,918.701,VALID,0,VALID,98.5303,VALID,0.101885,VALID,18.507,VALID,242,VALID,0,
2000-05-01, 00:51:00,VALID,918.696,VALID,0,VALID,98.5633,VALID,0.0849042,VALID,18.5202,VALID,268,VALID,0,
2000-05-01, 00:52:00,VALID,918.707,VALID,0,VALID,98.6244,VALID,0.0339617,VALID,18.5334,VALID,254,VALID,0,
2000-05-01, 00:53:00,VALID,918.674,VALID,0,VALID,98.6524,VALID,0,VALID,18.537,VALID,249,VALID,0,
2000-05-01, 00:54:00,VALID,918.664,VALID,0,VALID,98.6511,VALID,0.0339617,VALID,18.5174,VALID,249,VALID,0,
2000-05-01, 00:55:00,VALID,918.64,VALID,0,VALID,98.6549,VALID,0.0679233,VALID,18.4976,VALID,249,VALID,0,
2000-05-01, 00:56:00,VALID,918.622,VALID,0,VALID,98.6981,VALID,0.101885,VALID,18.4948,VALID,249,VALID,0,
2000-05-01, 00:57:00,VALID,918.612,VALID,0,VALID,98.735,VALID,0.0849042,VALID,18.4918,VALID,251,VALID,0,
2000-05-01, 00:58:00,VALID,918.599,VALID,0,VALID,98.749,VALID,0.0679233,VALID,18.4812,VALID,251,VALID,0,
2000-05-01, 00:59:00,VALID,918.59,VALID,0,VALID,98.7948,VALID,0.0509425,VALID,18.475,VALID,252,VALID,0,
2000-05-01, 01:00:00,VALID,918.572,VALID,0,VALID,98.8227,VALID,0.0339617,VALID,18.4784,VALID,253,VALID,0,
2000-05-01, 01:01:00,VALID,918.557,VALID,0,VALID,98.8723,VALID,0.0509425,VALID,18.4851,VALID,252,VALID,0,
2000-05-01, 01:02:00,VALID,918.542,VALID,0,VALID,98.8494,VALID,0.0509425,VALID,18.4851,VALID,249,VALID,0,
2000-05-01, 01:03:00,VALID,918.543,VALID,0,VALID,98.8406,VALID,0.0679233,VALID,18.4556,VALID,247,VALID,0.436472,
2000-05-01, 01:04:00,VALID,918.523,VALID,0,VALID,98.9703,VALID,0.0339617,VALID,18.5077,VALID,244,VALID,0.170641,
2000-05-01, 01:05:00,VALID,918.525,VALID,0,VALID,98.9792,VALID,0.0679233,VALID,18.5271,VALID,234,VALID,0,
2000-05-01, 01:06:00,VALID,918.527,VALID,0,VALID,98.9855,VALID,0.0679233,VALID,18.5597,VALID,202,VALID,0,
2000-05-01, 01:07:00,VALID,918.516,VALID,0,VALID,98.9346,VALID,0.0339617,VALID,18.5629,VALID,189,VALID,0,
2000-05-01, 01:08:00,VALID,918.499,VALID,0,VALID,98.8927,VALID,0.0679233,VALID,18.5495,VALID,182,VALID,0,
2000-05-01, 01:09:00,VALID,918.475,VALID,0,VALID,98.8431,VALID,0.0679233,VALID,18.5299,VALID,181,VALID,0,
2000-05-01, 01:10:00,VALID,918.468,VALID,0,VALID,98.7439,VALID,0.0339617,VALID,18.5174,VALID,181,VALID,0,
2000-05-01, 01:11:00,VALID,918.446,VALID,0,VALID,98.6574,VALID,0.0169808,VALID,18.4787,VALID,181,VALID,0,
2000-05-01, 01:12:00,VALID,918.43,VALID,0,VALID,98.6943,VALID,0.0339617,VALID,18.4789,VALID,174,VALID,0,
2000-05-01, 01:13:00,VALID,918.414,VALID,0,VALID,98.8418,VALID,0.0169808,VALID,18.5338,VALID,170,VALID,0,
2000-05-01, 01:14:00,VALID,918.391,VALID,0,VALID,98.9957,VALID,0,VALID,18.6113,VALID,167,VALID,0,
2000-05-01, 01:15:00,VALID,918.365,VALID,0,VALID,98.9944,VALID,0.0339617,VALID,18.6367,VALID,166,VALID,0,
2000-05-01, 01:16:00,VALID,918.345,VALID,0,VALID,99.0275,VALID,0.0339617,VALID,18.663,VALID,166,VALID,0,
2000-05-01, 01:17:00,VALID,918.322,VALID,0,VALID,99.1152,VALID,0.0339617,VALID,18.7177,VALID,166,VALID,0,
2000-05-01, 01:18:00,VALID,918.325,VALID,0,VALID,99.1534,VALID,0.0509425,VALID,18.7694,VALID,166,VALID,0,
2000-05-01, 01:19:00,VALID,918.308,VALID,0,VALID,99.1038,VALID,0.0169808,VALID,18.7562,VALID,166,VALID,0,
2000-05-01, 01:20:00,VALID,918.31,VALID,0,VALID,99.0593,VALID,0.0169808,VALID,18.7567,VALID,166,VALID,0,
2000-05-01, 01:21:00,VALID,918.298,VALID,0,VALID,99.044,VALID,0.0679233,VALID,18.7465,VALID,166,VALID,0,
2000-05-01, 01:22:00,VALID,918.287,VALID,0,VALID,99.0109,VALID,0.0509425,VALID,18.744,VALID,166,VALID,0,
2000-05-01, 01:23:00,VALID,918.294,VALID,0,VALID,98.9792,VALID,-0.0339617,VALID,18.7119,VALID,166,VALID,0,
2000-05-01, 01:24:00,VALID,918.29,VALID,0,VALID,99.0796,VALID,-0.0509425,VALID,18.7509,VALID,166,VALID,0,
2000-05-01, 01:25:00,VALID,918.287,VALID,0,VALID,99.1813,VALID,-0.0509425,VALID,18.8317,VALID,166,VALID,0,
2000-05-01, 01:26:00,VALID,918.282,VALID,0,VALID,99.1813,VALID,-0.0679233,VALID,18.897,VALID,166,VALID,0,
2000-05-01, 01:27:00,VALID,918.277,VALID,0,VALID,99.2615,VALID,-0.0509425,VALID,18.9874,VALID,167,VALID,0,
2000-05-01, 01:28:00,VALID,918.267,VALID,0,VALID,99.367,VALID,-0.0509425,VALID,19.0814,VALID,171,VALID,0,
2000-05-01, 01:29:00,VALID,918.276,VALID,0,VALID,99.3568,VALID,-0.0339617,VALID,19.0618,VALID,171,VALID,0,
2000-05-01, 01:30:00,VALID,918.286,VALID,0,VALID,98.8685,VALID,-0.0509425,VALID,18.8033,VALID,171,VALID,0,
2000-05-01, 01:31:00,VALID,918.287,VALID,0,VALID,98.6358,VALID,-0.0849042,VALID,18.6187,VALID,171,VALID,0,
2000-05-01, 01:32:00,VALID,918.285,VALID,0,VALID,98.6511,VALID,-0.0509425,VALID,18.5641,VALID,171,VALID,0,
2000-05-01, 01:33:00,VALID,918.294,VALID,0,VALID,98.6404,VALID,-0.0509425,VALID,18.5165,VALID,171,VALID,0,
2000-05-01, 01:34:00,VALID,918.286,VALID,0,VALID,98.5659,VALID,-0.0509425,VALID,18.4602,VALID,171,VALID,0,
2000-05-01, 01:35:00,VALID,918.262,VALID,0,VALID,98.646,VALID,-0.0339617,VALID,18.457,VALID,171,VALID,0,
2000-05-01, 01:36:00,VALID,918.264,VALID,0,VALID,98.6803,VALID,-0.0169808,VALID,18.4475,VALID,171,VALID,0,
2000-05-01, 01:37:00,VALID,918.241,VALID,0,VALID,98.6956,VALID,-0.0509425,VALID,18.4286,VALID,171,VALID,0,
2000-05-01, 01:38:00,VALID,918.231,VALID,0,VALID,98.7299,VALID,-0.101885,VALID,18.4254,VALID,171,VALID,0,
2000-05-01, 01:39:00,VALID,918.204,VALID,0,VALID,98.7643,VALID,-0.0509425,VALID,18.4252,VALID,171,VALID,0,
2000-05-01, 01:40:00,VALID,918.187,VALID,0,VALID,98.8062,VALID,-0.0849042,VALID,18.4349,VALID,171,VALID,0,
2000-05-01, 01:41:00,VALID,918.17,VALID,0,VALID,98.9016,VALID,-0.0679233,VALID,18.4803,VALID,171,VALID,0,
2000-05-01, 01:42:00,VALID,918.141,VALID,0,VALID,98.9728,VALID,-0.0509425,VALID,18.5061,VALID,171,VALID,0,
2000-05-01, 01:43:00,VALID,918.122,VALID,0,VALID,99.1025,VALID,-0.101885,VALID,18.5867,VALID,171,VALID,0,
2000-05-01, 01:44:00,VALID,918.101,VALID,0,VALID,98.9779,VALID,-0.101885,VALID,18.5548,VALID,171,VALID,0,
2000-05-01, 01:45:00,VALID,918.079,VALID,0,VALID,98.7808,VALID,-0.0679233,VALID,18.4319,VALID,171,VALID,0,
2000-05-01, 01:46:00,VALID,918.077,VALID,0,VALID,98.838,VALID,-0.0849042,VALID,18.4229,VALID,171,VALID,0,
2000-05-01, 01:47:00,VALID,918.052,VALID,0,VALID,98.913,VALID,-0.0849042,VALID,18.4418,VALID,171,VALID,0,
2000-05-01, 01:48:00,VALID,918.045,VALID,0,VALID,98.997,VALID,-0.101885,VALID,18.442,VALID,171,VALID,0,
2000-05-01, 01:49:00,VALID,918.048,VALID,0,VALID,99.1508,VALID,-0.0679233,VALID,18.5193,VALID,171,VALID,0,
2000-05-01, 01:50:00,VALID,918.059,VALID,0,VALID,99.2271,VALID,-0.0849042,VALID,18.5613,VALID,171,VALID,0,
2000-05-01, 01:51:00,VALID,918.043,VALID,0,VALID,99.1661,VALID,-0.0849042,VALID,18.5546,VALID,171,VALID,0,
2000-05-01, 01:52:00,VALID,918.047,VALID,0,VALID,99.1152,VALID,-0.0509425,VALID,18.5087,VALID,171,VALID,0,
2000-05-01, 01:53:00,VALID,918.043,VALID,0,VALID,99.1852,VALID,0,VALID,18.5271,VALID,165,VALID,0,
2000-05-01, 01:54:00,VALID,918.051,VALID,0,VALID,99.1305,VALID,0,VALID,18.4851,VALID,159,VALID,0,
2000-05-01, 01:55:00,VALID,918.033,VALID,0,VALID,99.0326,VALID,0.0339617,VALID,18.4111,VALID,135,VALID,0,
2000-05-01, 01:56:00,VALID,918.041,VALID,0,VALID,99.0338,VALID,0.0169808,VALID,18.3719,VALID,106,VALID,0,
2000-05-01, 01:57:00,VALID,918.033,VALID,0,VALID,99.1877,VALID,0.0339617,VALID,18.4374,VALID,88,VALID,0,
2000-05-01, 01:58:00,VALID,918.029,VALID,0,VALID,99.2462,VALID,0.0339617,VALID,18.4821,VALID,87,VALID,0,
2000-05-01, 01:59:00,VALID,918.013,VALID,0,VALID,99.2373,VALID,0,VALID,18.4958,VALID,84,VALID,0,
2000-05-01, 02:00:00,VALID,917.998,VALID,0,VALID,99.1826,VALID,0,VALID,18.4856,VALID,84,VALID,0,
2000-05-01, 02:01:00,VALID,917.993,VALID,0,VALID,99.1801,VALID,0.0339617,VALID,18.4761,VALID,84,VALID,0,
2000-05-01, 02:02:00,VALID,917.973,VALID,0,VALID,99.1559,VALID,0,VALID,18.4757,VALID,87,VALID,0,
2000-05-01, 02:03:00,VALID,917.969,VALID,0,VALID,99.133,VALID,0,VALID,18.4725,VALID,87,VALID,0,
2000-05-01, 02:04:00,VALID,917.948,VALID,0,VALID,99.1152,VALID,0,VALID,18.4725,VALID,87,VALID,0,
2000-05-01, 02:05:00,VALID,917.939,VALID,0,VALID,99.1763,VALID,0.0339617,VALID,18.5211,VALID,87,VALID,0,
2000-05-01, 02:06:00,VALID,917.934,VALID,0,VALID,99.2131,VALID,0.0339617,VALID,18.5567,VALID,65,VALID,0,
2000-05-01, 02:07:00,VALID,917.926,VALID,0,VALID,99.25,VALID,0,VALID,18.5793,VALID,311,VALID,0,
2000-05-01, 02:08:00,VALID,917.91,VALID,0,VALID,99.1979,VALID,0.0169808,VALID,18.5537,VALID,314,VALID,0,
2000-05-01, 02:09:00,VALID,917.896,VALID,0,VALID,99.1864,VALID,0,VALID,18.5311,VALID,329,VALID,0,
2000-05-01, 02:10:00,VALID,917.888,VALID,0,VALID,99.1979,VALID,0.0169808,VALID,18.5271,VALID,357,VALID,0,
2000-05-01, 02:11:00,VALID,917.877,VALID,0,VALID,99.2042,VALID,0,VALID,18.5574,VALID,334,VALID,0,
2000-05-01, 02:12:00,VALID,917.864,VALID,0,VALID,99.1953,VALID,0.0169808,VALID,18.5502,VALID,282,VALID,0,
2000-05-01, 02:13:00,VALID,917.862,VALID,0,VALID,99.1813,VALID,0,VALID,18.5539,VALID,282,VALID,0,
2000-05-01, 02:14:00,VALID,917.853,VALID,0,VALID,99.1572,VALID,-0.0169808,VALID,18.5343,VALID,282,VALID,0,
2000-05-01, 02:15:00,VALID,917.837,VALID,0,VALID,99.1381,VALID,0,VALID,18.5214,VALID,282,VALID,0,
2000-05-01, 02:16:00,VALID,917.82,VALID,0,VALID,99.1241,VALID,0,VALID,18.4985,VALID,38,VALID,0,
2000-05-01, 02:17:00,VALID,917.813,VALID,0,VALID,99.0275,VALID,0.0169808,VALID,18.4699,VALID,96,VALID,0,
2000-05-01, 02:18:00,VALID,917.816,VALID,0,VALID,99.0046,VALID,0,VALID,18.4208,VALID,99,VALID,0,
2000-05-01, 02:19:00,VALID,917.798,VALID,0,VALID,99.016,VALID,0,VALID,18.4178,VALID,103,VALID,0,
2000-05-01, 02:20:00,VALID,917.779,VALID,0,VALID,99.002,VALID,-0.0169808,VALID,18.4309,VALID,103,VALID,0,
2000-05-01, 02:21:00,VALID,917.777,VALID,0,VALID,98.9817,VALID,0,VALID,18.4372,VALID,103,VALID,0,
2000-05-01, 02:22:00,VALID,917.763,VALID,0,VALID,98.9448,VALID,-0.0169808,VALID,18.4406,VALID,103,VALID,0,
2000-05-01, 02:23:00,VALID,917.758,VALID,0,VALID,98.9156,VALID,-0.0339617,VALID,18.4307,VALID,103,VALID,0,
2000-05-01, 02:24:00,VALID,917.734,VALID,0,VALID,98.8609,VALID,0,VALID,18.4307,VALID,103,VALID,0,
2000-05-01, 02:25:00,VALID,917.712,VALID,0,VALID,98.8456,VALID,0,VALID,18.4473,VALID,103,VALID,0,
2000-05-01, 02:26:00,VALID,917.694,VALID,0,VALID,98.8177,VALID,0,VALID,18.4468,VALID,103,VALID,0,
2000-05-01, 02:27:00,VALID,917.686,VALID,0,VALID,98.7325,VALID,0,VALID,18.4473,VALID,119,VALID,0,
2000-05-01, 02:28:00,VALID,917.686,VALID,0,VALID,98.6587,VALID,0.0169808,VALID,18.424,VALID,168,VALID,0,
2000-05-01, 02:29:00,VALID,917.678,VALID,0,VALID,98.6295,VALID,-0.0169808,VALID,18.4215,VALID,177,VALID,0,
2000-05-01, 02:30:00,VALID,917.673,VALID,0,VALID,98.6371,VALID,-0.0169808,VALID,18.4051,VALID,177,VALID,0,
2000-05-01, 02:31:00,VALID,917.684,VALID,0,VALID,98.674,VALID,0,VALID,18.3885,VALID,177,VALID,0,
2000-05-01, 02:32:01,VALID,917.674,VALID,0,VALID,98.6854,VALID,-0.0169808,VALID,18.4056,VALID,177,VALID,0,
2000-05-01, 02:33:00,VALID,917.68,VALID,0,VALID,98.6498,VALID,0,VALID,18.4019,VALID,177,VALID,0,
2000-05-01, 02:34:00,VALID,917.677,VALID,0,VALID,98.6307,VALID,0,VALID,18.4086,VALID,177,VALID,0,
2000-05-01, 02:35:00,VALID,917.669,VALID,0,VALID,98.6346,VALID,0,VALID,18.4083,VALID,177,VALID,0,
2000-05-01, 02:36:00,VALID,917.666,VALID,0,VALID,98.6155,VALID,0,VALID,18.4146,VALID,177,VALID,0,
2000-05-01, 02:37:00,VALID,917.647,VALID,0,VALID,98.5354,VALID,0,VALID,18.4217,VALID,177,VALID,0,
2000-05-01, 02:38:01,VALID,917.648,VALID,0,VALID,98.4807,VALID,-0.0339617,VALID,18.3993,VALID,177,VALID,0,
2000-05-01, 02:39:00,VALID,917.643,VALID,0,VALID,98.4578,VALID,-0.0169808,VALID,18.3991,VALID,177,VALID,0,
2000-05-01, 02:40:01,VALID,917.64,VALID,0,VALID,98.3955,VALID,-0.0169808,VALID,18.3993,VALID,176,VALID,0,
2000-05-01, 02:41:00,VALID,917.664,VALID,0,VALID,98.3497,VALID,-0.0339617,VALID,18.3866,VALID,176,VALID,0,
2000-05-01, 02:42:00,VALID,917.67,VALID,0,VALID,98.365,VALID,-0.0679233,VALID,18.3936,VALID,176,VALID,0,
2000-05-01, 02:43:00,VALID,917.675,VALID,0,VALID,98.3459,VALID,-0.0339617,VALID,18.3901,VALID,176,VALID,0,
2000-05-01, 02:44:00,VALID,917.691,VALID,0,VALID,98.2772,VALID,-0.0339617,VALID,18.3705,VALID,176,VALID,0,
2000-05-01, 02:45:00,VALID,917.713,VALID,0,VALID,98.2238,VALID,-0.0679233,VALID,18.3509,VALID,176,VALID,0,
2000-05-01, 02:46:01,VALID,917.712,VALID,0,VALID,98.2124,VALID,-0.101885,VALID,18.3421,VALID,176,VALID,0,
2000-05-01, 02:47:00,VALID,917.729,VALID,0,VALID,98.2798,VALID,-0.0339617,VALID,18.3255,VALID,176,VALID,0,
2000-05-01, 02:48:01,VALID,917.733,VALID,0,VALID,98.3586,VALID,-0.0679233,VALID,18.338,VALID,176,VALID,0,
2000-05-01, 02:49:00,VALID,917.743,VALID,0,VALID,98.4018,VALID,-0.0339617,VALID,18.3576,VALID,176,VALID,0,
2000-05-01, 02:50:00,VALID,917.739,VALID,0,VALID,98.3497,VALID,-0.0339617,VALID,18.3479,VALID,176,VALID,0,
2000-05-01, 02:51:00,VALID,917.731,VALID,0,VALID,98.2518,VALID,-0.0509425,VALID,18.3253,VALID,176,VALID,0,
2000-05-01, 02:52:00,VALID,917.727,VALID,0,VALID,98.2976,VALID,-0.0169808,VALID,18.311,VALID,176,VALID,0,
2000-05-01, 02:53:00,VALID,917.716,VALID,0,VALID,98.3256,VALID,0.0679233,VALID,18.3274,VALID,175,VALID,0,
2000-05-01, 02:54:01,VALID,917.709,VALID,0,VALID,98.3281,VALID,0.0679233,VALID,18.3075,VALID,175,VALID,0,
2000-05-01, 02:55:00,VALID,917.701,VALID,0,VALID,98.3726,VALID,0.0339617,VALID,18.3043,VALID,175,VALID,0,
2000-05-01, 02:56:01,VALID,917.675,VALID,0,VALID,98.5265,VALID,0.0849042,VALID,18.3303,VALID,175,VALID,0,
2000-05-01, 02:57:00,VALID,917.672,VALID,0,VALID,98.5875,VALID,0.0679233,VALID,18.356,VALID,175,VALID,0,
2000-05-01, 02:58:00,VALID,917.679,VALID,0,VALID,98.5722,VALID,0.0509425,VALID,18.3659,VALID,175,VALID,0,
2000-05-01, 02:59:01,VALID,917.683,VALID,0,VALID,98.585,VALID,0.0849042,VALID,18.3885,VALID,175,VALID,0,
2000-05-01, 03:00:00,VALID,917.689,VALID,0,VALID,98.5659,VALID,0.101885,VALID,18.4079,VALID,175,VALID,0,
2000-05-01, 03:01:00,VALID,917.7,VALID,0,VALID,98.4998,VALID,0.0339617,VALID,18.4245,VALID,175,VALID,0,
2000-05-01, 03:02:01,VALID,917.706,VALID,0,VALID,98.365,VALID,0.0679233,VALID,18.4247,VALID,175,VALID,0,
2000-05-01, 03:03:00,VALID,917.716,VALID,0,VALID,98.178,VALID,0.101885,VALID,18.3887,VALID,175,VALID,0,
2000-05-01, 03:04:01,VALID,917.711,VALID,0,VALID,98.1081,VALID,0.0679233,VALID,18.3721,VALID,154,VALID,0,
2000-05-01, 03:05:00,VALID,917.703,VALID,0,VALID,98.1094,VALID,0.0509425,VALID,18.3857,VALID,152,VALID,0,
2000-05-01, 03:06:00,VALID,917.705,VALID,0,VALID,98.1475,VALID,0.0509425,VALID,18.3855,VALID,152,VALID,0,
2000-05-01, 03:07:00,VALID,917.691,VALID,0,VALID,98.1234,VALID,0.0169808,VALID,18.3954,VALID,152,VALID,0,
2000-05-01, 03:08:00,VALID,917.68,VALID,0,VALID,98.1297,VALID,0,VALID,18.4058,VALID,152,VALID,0,
2000-05-01, 03:09:00,VALID,917.668,VALID,0,VALID,98.1081,VALID,-0.0679233,VALID,18.4219,VALID,152,VALID,0,
2000-05-01, 03:10:01,VALID,917.655,VALID,0,VALID,98.028,VALID,-0.0169808,VALID,18.4381,VALID,150,VALID,0,
2000-05-01, 03:11:00,VALID,917.634,VALID,0,VALID,97.8258,VALID,-0.0679233,VALID,18.4418,VALID,146,VALID,0,
2000-05-01, 03:12:01,VALID,917.626,VALID,0,VALID,97.7788,VALID,0,VALID,18.4217,VALID,124,VALID,0,
2000-05-01, 03:13:00,VALID,917.596,VALID,0,VALID,97.7406,VALID,-0.0339617,VALID,18.4215,VALID,112,VALID,0,
2000-05-01, 03:14:00,VALID,917.579,VALID,0,VALID,97.7393,VALID,-0.0679233,VALID,18.4319,VALID,109,VALID,0,
2000-05-01, 03:15:01,VALID,917.571,VALID,0,VALID,97.7419,VALID,-0.0339617,VALID,18.4376,VALID,98,VALID,0,
2000-05-01, 03:16:01,VALID,917.568,VALID,0,VALID,97.6529,VALID,-0.0339617,VALID,18.4639,VALID,95,VALID,0,
2000-05-01, 03:17:00,VALID,917.552,VALID,0,VALID,97.5003,VALID,-0.0169808,VALID,18.451,VALID,96,VALID,0,
2000-05-01, 03:18:01,VALID,917.54,VALID,0,VALID,97.5232,VALID,-0.0169808,VALID,18.4478,VALID,96,VALID,0,
2000-05-01, 03:19:00,VALID,917.54,VALID,0,VALID,97.5372,VALID,0,VALID,18.4542,VALID,96,VALID,0,
2000-05-01, 03:20:01,VALID,917.546,VALID,0,VALID,97.5499,VALID,-0.0339617,VALID,18.4575,VALID,96,VALID,0,
2000-05-01, 03:21:00,VALID,917.534,VALID,0,VALID,97.4977,VALID,-0.0679233,VALID,18.4512,VALID,96,VALID,0,
2000-05-01, 03:22:00,VALID,917.555,VALID,0,VALID,97.354,VALID,-0.0339617,VALID,18.4286,VALID,98,VALID,0,
2000-05-01, 03:23:01,VALID,917.569,VALID,0,VALID,97.3375,VALID,-0.0339617,VALID,18.4058,VALID,95,VALID,0,
2000-05-01, 03:24:00,VALID,917.579,VALID,0,VALID,97.452,VALID,-0.0509425,VALID,18.4353,VALID,88,VALID,0,
2000-05-01, 03:25:00,VALID,917.599,VALID,0,VALID,97.424,VALID,0,VALID,18.4445,VALID,90,VALID,0,
2000-05-01, 03:26:01,VALID,917.607,VALID,0,VALID,97.2968,VALID,-0.0169808,VALID,18.4639,VALID,110,VALID,0,
2000-05-01, 03:27:00,VALID,917.603,VALID,0,VALID,97.1595,VALID,-0.0169808,VALID,18.4771,VALID,134,VALID,0,
2000-05-01, 03:28:01,VALID,917.592,VALID,0,VALID,97.073,VALID,-0.0509425,VALID,18.4771,VALID,120,VALID,0,
2000-05-01, 03:29:00,VALID,917.607,VALID,0,VALID,97.0234,VALID,-0.0509425,VALID,18.4669,VALID,114,VALID,0,
2000-05-01, 03:30:00,VALID,917.598,VALID,0,VALID,96.9268,VALID,0,VALID,18.454,VALID,113,VALID,0,
2000-05-01, 03:31:00,VALID,917.602,VALID,0,VALID,96.9064,VALID,0,VALID,18.4515,VALID,111,VALID,0,
2000-05-01, 03:32:00,VALID,917.597,VALID,0,VALID,96.8848,VALID,-0.0169808,VALID,18.4475,VALID,99,VALID,0,
2000-05-01, 03:33:00,VALID,917.591,VALID,0,VALID,96.9128,VALID,0,VALID,18.4704,VALID,77,VALID,0,
2000-05-01, 03:34:01,VALID,917.589,VALID,0,VALID,96.8963,VALID,-0.0169808,VALID,18.5128,VALID,90,VALID,0,
2000-05-01, 03:35:00,VALID,917.593,VALID,0,VALID,96.7844,VALID,-0.0679233,VALID,18.5188,VALID,93,VALID,0,
2000-05-01, 03:36:01,VALID,917.591,VALID,0,VALID,96.6623,VALID,-0.0169808,VALID,18.5253,VALID,92,VALID,0,
2000-05-01, 03:37:00,VALID,917.61,VALID,0,VALID,96.6102,VALID,-0.0339617,VALID,18.5126,VALID,91,VALID,0,
2000-05-01, 03:38:00,VALID,917.611,VALID,0,VALID,96.5796,VALID,-0.101885,VALID,18.5027,VALID,91,VALID,0,
2000-05-01, 03:39:01,VALID,917.617,VALID,0,VALID,96.6102,VALID,-0.101885,VALID,18.5002,VALID,91,VALID,0,
2000-05-01, 03:40:01,VALID,917.629,VALID,0,VALID,96.7424,VALID,-0.101885,VALID,18.4967,VALID,91,VALID,0,
2000-05-01, 03:41:00,VALID,917.645,VALID,0,VALID,96.8301,VALID,-0.0509425,VALID,18.5156,VALID,88,VALID,0,
2000-05-01, 03:42:01,VALID,917.653,VALID,0,VALID,96.7106,VALID,-0.0849042,VALID,18.5744,VALID,92,VALID,0,
2000-05-01, 03:43:00,VALID,917.657,VALID,0,VALID,96.6966,VALID,-0.0679233,VALID,18.5837,VALID,94,VALID,0,